Location: Newark
(40.9833°N, 0.0333°W)
Time: 02:07:22
(UTC+00:00)

Altair - Pass Details

Date: 02 November 2020
Orbit: 1502 x 1682 km, 47.2° (Epoch: 02 December)

Event Time Altitude Azimuth Distance (km) Brightness Sun altitude
Rises 05:50:07 0° 267° (W) 4,649 - -8.5°
Exits shadow 05:52:39 - 270° (W) 3,848 9.0 -8.1°
Reaches altitude 10° 05:53:11 10° 271° (W) 3,681 8.9 -8.0°
Maximum altitude 06:02:23 62° 352° (N) 1,716 7.7 -6.3°
Drops below altitude 10° 06:11:57 10° 72° (ENE) 3,812 10.6 -4.5°
Sets 06:15:11 0° 76° (ENE) 4,823 11.3 -4.0°
